Hattiesburg, MS

4:26 AM CDT on September 26, 2016 (GMT -0500)
Chain Municipal

Weather History for KHBG - April, 2012

Change the Weather History Date:

Sunday, April 29, 2012

  Actual Average Record
Temperature  
Mean Temperature 73 °F 69 °F  
Max Temperature 87 °F 82 °F 94 °F (1955)
Min Temperature 58 °F 57 °F 42 °F (1973)
Degree Days  
Heating Degree Days 0 1  
Month to date heating degree days 25 82  
Since 1 July heating degree days 1398 1977  
Cooling Degree Days 8 5  
Month to date cooling degree days 118 87  
Year to date cooling degree days 306 135  
Growing Degree Days 22 (Base 50)    
Moisture  
Dew Point 62 °F    
Average Humidity 70    
Maximum Humidity 97    
Minimum Humidity 42    
Precipitation  
Precipitation 0.00 in 0.12 in 2.00 in (1998)
Month to date precipitation 3.20 4.81  
Year to date precipitation 25.37 21.44  
Sea Level Pressure  
Sea Level Pressure 30.10 in    
Wind  
Wind Speed 3 mph (SSE)    
Max Wind Speed 9 mph    
Max Gust Speed 12 mph    
Visibility 10 miles    
Events Rain    
T = Trace of Precipitation, MM = Missing Value Source: NWS Daily Summary

Daily Weather History Graph

Daily Weather History Graph

Search for Another Location

Airport or City:

Trip Planner

Search our weather history database for the weather conditions in past years. The results will help you decide how hot, cold, wet, or windy it might be!

Date:

Astronomy

Apr. 29, 2012 Rise Set
Actual Time 6:13 AM CDT 7:35 PM CDT
Civil Twilight 5:48 AM CDT 8:01 PM CDT
Nautical Twilight 5:17 AM CDT 8:31 PM CDT
Astronomical Twilight 4:45 AM CDT 9:03 PM CDT
Moon 12:54 PM CDT (4/29) 1:35 AM CDT (4/29)
Length of Visible Light 14h 13m
Length of Day
13h 21m
First Quarter, 53% of the Moon is Illuminated
Apr 29
First Quarter
May 5
Full
May 12
Last Quarter
May 20
New
May 28
First Quarter

Hourly Weather History & Observations

Time (CDT) Temp. Heat Index Dew Point Humidity Pressure Visibility Wind Dir Wind Speed Gust Speed Precip Events Conditions
12:53 AM 63.0 °F - 59.0 °F 87% 30.08 in 10.0 mi Calm Calm - 0.00 in   Clear
1:53 AM 62.1 °F - 59.0 °F 90% 30.08 in 10.0 mi Calm Calm - 0.00 in Rain Light Rain
2:53 AM 61.0 °F - 57.0 °F 87% 30.07 in 10.0 mi Calm Calm - 0.00 in   Clear
3:11 AM 60.8 °F - 57.2 °F 88% 30.08 in 10.0 mi Calm Calm - N/A   Scattered Clouds
3:20 AM 60.8 °F - 57.2 °F 88% 30.08 in 10.0 mi Calm Calm - N/A   Mostly Cloudy
3:53 AM 59.0 °F - 57.0 °F 93% 30.08 in 10.0 mi Calm Calm - N/A   Overcast
4:53 AM 59.0 °F - 57.0 °F 93% 30.08 in 10.0 mi Calm Calm - 0.00 in   Overcast
5:53 AM 57.9 °F - 55.9 °F 93% 30.09 in 10.0 mi Calm Calm - N/A   Overcast
6:53 AM 59.0 °F - 57.0 °F 93% 30.11 in 10.0 mi Calm Calm - N/A   Overcast
7:53 AM 61.0 °F - 59.0 °F 93% 30.12 in 10.0 mi Calm Calm - N/A   Overcast
8:53 AM 64.9 °F - 62.1 °F 90% 30.13 in 10.0 mi Calm Calm - N/A   Overcast
9:36 AM 68.0 °F - 64.4 °F 88% 30.14 in 10.0 mi East 4.6 mph - N/A   Overcast
9:53 AM 71.1 °F - 64.9 °F 81% 30.13 in 10.0 mi Variable 4.6 mph - N/A   Overcast
10:16 AM 73.4 °F - 66.2 °F 78% 30.15 in 10.0 mi East 6.9 mph - N/A   Overcast
10:25 AM 75.2 °F - 66.2 °F 73% 30.15 in 10.0 mi East 4.6 mph - N/A   Mostly Cloudy
10:51 AM 75.2 °F - 64.4 °F 69% 30.15 in 10.0 mi Calm Calm - N/A   Mostly Cloudy
10:53 AM 75.9 °F - 64.0 °F 67% 30.14 in 10.0 mi Calm Calm - N/A   Mostly Cloudy
11:00 AM 75.2 °F - 64.4 °F 69% 30.15 in 10.0 mi West 3.5 mph - N/A   Overcast
11:25 AM 78.8 °F - 64.4 °F 61% 30.15 in 10.0 mi SE 5.8 mph - N/A   Partly Cloudy
11:53 AM 80.1 °F 81.5 °F 63.0 °F 56% 30.13 in 10.0 mi South 6.9 mph - N/A   Partly Cloudy
12:53 PM 81.0 °F 81.7 °F 61.0 °F 50% 30.11 in 10.0 mi South 6.9 mph - N/A   Partly Cloudy
1:53 PM 84.0 °F 84.4 °F 61.0 °F 46% 30.09 in 10.0 mi South 6.9 mph - N/A   Partly Cloudy
2:53 PM 84.9 °F 85.4 °F 62.1 °F 46% 30.07 in 10.0 mi SE 4.6 mph - N/A   Scattered Clouds
3:53 PM 84.9 °F 85.4 °F 62.1 °F 46% 30.06 in 10.0 mi SW 5.8 mph - N/A   Scattered Clouds
4:53 PM 86.0 °F 86.1 °F 61.0 °F 43% 30.05 in 10.0 mi South 3.5 mph - N/A   Scattered Clouds
5:53 PM 84.9 °F 84.8 °F 60.1 °F 43% 30.05 in 10.0 mi South 6.9 mph - N/A   Clear
6:53 PM 81.0 °F 82.2 °F 63.0 °F 54% 30.05 in 10.0 mi South 5.8 mph - N/A   Clear
7:53 PM 78.1 °F - 63.0 °F 60% 30.06 in 10.0 mi South 4.6 mph - N/A   Clear
9:53 PM 73.0 °F - 64.9 °F 76% 30.10 in 10.0 mi South 5.8 mph - N/A   Clear
10:53 PM 71.1 °F - 64.9 °F 81% 30.11 in 10.0 mi Calm Calm - 0.00 in   Clear
11:53 PM 69.1 °F - 64.9 °F 87% 30.12 in 10.0 mi Calm Calm - 0.00 in   Clear